[[{"header":{"parameterUnit":"m.s-1","parameterCategory":1,"la1":30.2991,"la2":30.254,"lo1":-89.0895,"lo2":-89.0444,"dy":0.0017,"dx":0.0017,"nx":28,"ny":28,"refTime":"2023-11-21T03:00:00:Z","depth":0,"parameterNumber":2,"parameterNumberName":"U-component_of_WINDS"},"data":[0,0,0,0,0,0,0,0,0,0,0,0,0,0,0,0,0,0,0,0,0,0,0,0,0,0,0,0,0,0,0,0,0,0,0,0,0,0,0,0,0,0,0,0,0,0,0,0,0,0,0,0,0,0,0,0,0,0,1.1724,1.1724,0,1.1726,1.1726,1.1726,1.1711,1.171,1.171,1.171,1.1713,1.1713,1.1713,0,0,0,0,0,0,0,0,0,0,0,0,0,1.171,1.171,1.1724,1.1724,1.1724,1.1726,1.1726,1.1726,1.1711,1.171,1.171,1.1709,1.1712,1.1713,1.1713,0,0,0,0,0,0,0,0,0,0,0,0,0,1.1714,1.171,1.1724,1.1717,1.1716,1.1726,1.1726,1.1726,1.1711,1.171,1.171,1.1709,1.1712,1.1713,1.1714,1.173,0,0,1.1716,1.1716,0,0,0,0,0,0,0,0,1.1714,1.1715,1.1718,1.1717,1.1716,1.1717,1.1722,1.1727,1.1711,1.1713,1.1709,1.1709,1.1715,1.1715,1.1717,1.1731,1.1731,1.1716,1.1716,1.1717,1.1717,0,0,0,0,0,0,0,1.1714,1.1715,1.1724,1.1718,1.1717,1.1714,1.1714,1.1723,1.1717,1.1713,1.1712,1.1712,1.1714,1.1716,1.1717,1.1731,1.1716,1.1716,1.1717,1.1717,1.176,1.1761,0,0,0,0,0,0,1.1714,1.1715,1.1724,1.1725,1.1714,1.1715,1.1715,1.1718,1.1717,1.1716,1.1712,1.1711,1.1715,1.1716,1.1717,1.1737,1.1717,1.1717,1.1718,1.1759,1.176,1.1761,0,0,0,0,0,0,1.1714,1.1715,1.1724,1.1719,1.172,1.1716,1.1719,1.1718,1.172,1.1717,1.1716,1.1715,1.1715,1.1716,1.1727,1.1737,1.1717,1.1718,1.1759,1.176,1.1761,1.1778,0,0,0,0,0,0,1.1714,1.1715,1.1721,1.172,1.1721,1.1734,1.172,1.1718,1.1721,1.1719,1.1719,1.1719,1.1714,1.1727,1.1728,1.1738,1.1719,1.1758,1.1759,1.176,1.1777,1.178,1.1782,0,0,0,0,0,1.1713,1.1726,1.1721,1.1723,1.1727,1.1735,1.1735,1.173,1.1722,1.1728,1.1727,1.1719,1.1736,1.1728,1.173,1.174,1.1757,1.1759,1.176,1.1775,1.1779,1.1782,0,0,0,0,0,0,1.1728,1.1725,1.172,1.1732,1.1734,1.1732,1.174,1.1734,1.1737,1.1736,1.1729,1.1729,1.1742,1.1742,1.1733,1.1757,1.1745,1.1747,1.1756,1.176,1.1763,1.1762,1.1719,0,0,0,0,0,1.1733,1.1739,1.1736,1.1747,1.1748,1.1744,1.1747,1.1742,1.1744,1.1744,1.1744,1.1746,1.1752,1.1756,1.1761,1.1777,1.1777,1.1785,1.1788,1.179,1.1792,1.1802,1.1805,1.1766,1.1766,1.1766,0,0,1.1743,1.1742,1.1746,1.175,1.1751,1.1758,1.1744,1.1752,1.1757,1.1746,1.1757,1.1756,1.1758,1.1773,1.1779,1.1773,1.1803,1.1792,1.1794,1.1795,1.1804,1.1808,1.1811,1.1768,1.1767,1.1767,0,0,1.1764,1.1764,1.1773,1.1775,1.1776,1.1773,1.1776,1.1775,1.1775,1.1785,1.1777,1.1784,1.1794,1.1797,1.1799,1.1823,1.1817,1.1825,1.184,1.185,1.1853,1.1855,1.1865,1.1868,1.1827,1.1827,1.1827,0,1.1776,1.1785,1.1779,1.1788,1.179,1.1781,1.1791,1.1793,1.1796,1.1798,1.1792,1.1805,1.1806,1.1821,1.1827,1.1829,1.1833,1.1825,1.1853,1.1855,1.1858,1.1867,1.187,1.1828,1.1828,1.1828,1.1828,0,1.1801,1.1808,1.1815,1.1819,1.1822,1.1832,1.1828,1.1833,1.1829,1.1827,1.1839,1.184,1.1846,1.1849,1.1845,1.1864,1.1861,1.1854,1.1842,1.1863,1.1871,1.1874,1.183,1.183,1.1829,1.1829,0,0,1.183,1.1831,1.1834,1.1836,1.1838,1.1843,1.1853,1.1859,1.1863,1.1866,1.1875,1.1885,1.1879,1.1881,1.1878,1.1886,1.1907,1.1878,1.1878,1.1884,1.1929,1.1935,1.1939,1.1903,1.1904,1.1904,1.193,0,1.1852,1.1867,1.1863,1.1879,1.1886,1.1878,1.1887,1.1889,1.1889,1.1895,1.1895,1.1902,1.1893,1.1895,1.1903,1.1903,1.1916,1.1901,1.1912,1.1912,1.1911,1.1943,1.1949,1.1973,1.1933,1.1933,1.1934,0,1.1878,1.1882,1.1899,1.1901,1.1904,1.1911,1.1917,1.1923,1.1927,1.1926,1.193,1.1925,1.1936,1.1925,1.194,1.193,1.1935,1.1935,1.1936,1.1937,1.1924,1.1945,1.198,1.1984,1.1939,1.1938,1.1938,0,1.1899,1.1909,1.1921,1.1923,1.1925,1.1931,1.1932,1.1934,1.1939,1.1944,1.1947,1.1954,1.1958,1.1963,1.1961,1.1953,1.1978,1.1966,1.1978,1.1978,1.1983,1.1983,1.202,1.1986,1.1986,1.1986,1.1986,0,1.1923,1.1934,1.193,1.1937,1.195,1.1945,1.1958,1.1959,1.1961,1.197,1.1963,1.1971,1.1967,1.1976,1.1974,1.1988,1.199,1.199,1.1989,1.199,1.199,1.1993,1.1992,1.1987,1.1987,1.1987,1.1986,0,1.1948,1.1946,1.1958,1.1959,1.196,1.1969,1.1971,1.1979,1.1978,1.1988,1.1991,1.199,1.1999,1.1998,1.2008,1.2007,1.2025,1.2022,1.2023,1.2023,1.2035,1.2034,1.2075,1.2081,1.2043,1.2044,1.2044,0,1.1963,1.1972,1.1974,1.1979,1.1981,1.1989,1.1993,1.199,1.1995,1.2,1.2007,1.2016,1.2023,1.2038,1.2039,1.2048,1.2046,1.2059,1.2047,1.2048,1.2046,1.2046,1.2047,1.2062,1.2062,1.2062,1.2063,0,1.1992,1.199,1.1997,1.2003,1.2009,1.2014,1.2019,1.2023,1.202,1.2027,1.2036,1.2041,1.2052,1.2062,1.207,1.2072,1.2068,1.2067,1.207,1.2071,1.2072,1.2073,1.203,1.2066,1.2065,1.2065,1.2065,1.2065,1.2013,1.202,1.2023,1.2031,1.2034,1.2039,1.2046,1.2047,1.2055,1.2063,1.2061,1.2072,1.2077,1.2088,1.2091,1.21,1.2095,1.21,1.2101,1.2103,1.2104,1.2071,1.2102,1.2102,1.2102,1.2102,1.2101,0,1.2041,1.2043,1.205,1.2057,1.2064,1.2058,1.2064,1.207,1.2079,1.2084,1.2091,1.2103,1.2112,1.2115,1.2124,1.2131,1.2129,1.2134,1.2133,1.2134,1.2108,1.2104,1.2135,1.2135,1.2135,1.2135,1.2135,1.2135,1.2056,1.2069,1.2069,1.2083,1.2086,1.2096,1.21,1.2105,1.2108,1.2122,1.2129,1.2131,1.2135,1.2145,1.2154,1.2154,1.2158,1.2164,1.2164,1.2139,1.2136,1.2133,1.2129,1.2165,1.2165,1.2189,1.2189,1.219]},{"header":{"parameterUnit":"m.s-1","parameterCategory":1,"la1":30.2991,"la2":30.254,"lo1":-89.0895,"lo2":-89.0444,"dy":0.0017,"dx":0.0017,"nx":28,"ny":28,"refTime":"2023-11-21T03:00:00:Z","depth":0,"parameterNumber":3,"parameterNumberName":"V-component_of_WINDS"},"data":[0,0,0,0,0,0,0,0,0,0,0,0,0,0,0,0,0,0,0,0,0,0,0,0,0,0,0,0,0,0,0,0,0,0,0,0,0,0,0,0,0,0,0,0,0,0,0,0,0,0,0,0,0,0,0,0,0,0,-5.5074,-5.5075,0,-5.5161,-5.5162,-5.5163,-5.5151,-5.515,-5.5148,-5.5147,-5.523,-5.5234,-5.5237,0,0,0,0,0,0,0,0,0,0,0,0,0,-5.4896,-5.4899,-5.5074,-5.5075,-5.5076,-5.516,-5.5162,-5.5163,-5.5151,-5.5149,-5.5148,-5.5146,-5.5229,-5.5233,-5.5238,0,0,0,0,0,0,0,0,0,0,0,0,0,-5.4977,-5.49,-5.5074,-5.5081,-5.5082,-5.516,-5.5162,-5.5163,-5.5152,-5.5149,-5.5147,-5.5145,-5.5228,-5.5233,-5.5238,-5.5313,0,0,-5.5254,-5.5257,0,0,0,0,0,0,0,0,-5.4972,-5.4983,-5.5079,-5.508,-5.5082,-5.5143,-5.5129,-5.5213,-5.5152,-5.5125,-5.5147,-5.5144,-5.5203,-5.521,-5.5231,-5.5317,-5.5321,-5.5255,-5.5258,-5.526,-5.5262,0,0,0,0,0,0,0,-5.4966,-5.4979,-5.5108,-5.508,-5.5082,-5.5078,-5.5088,-5.5145,-5.5174,-5.5127,-5.5127,-5.5137,-5.5203,-5.5225,-5.5232,-5.5322,-5.5255,-5.5259,-5.5263,-5.5265,-5.5476,-5.5479,0,0,0,0,0,0,-5.496,-5.4975,-5.5105,-5.5111,-5.5021,-5.5083,-5.5094,-5.5125,-5.5174,-5.5179,-5.5139,-5.5136,-5.5217,-5.5226,-5.5235,-5.5328,-5.526,-5.5265,-5.5268,-5.5474,-5.5477,-5.5479,0,0,0,0,0,0,-5.4956,-5.4971,-5.5102,-5.5043,-5.5059,-5.5089,-5.5125,-5.5128,-5.5151,-5.5183,-5.5188,-5.5157,-5.5216,-5.5228,-5.5295,-5.533,-5.5268,-5.5272,-5.5471,-5.5475,-5.5478,-5.5512,0,0,0,0,0,0,-5.4951,-5.497,-5.5,-5.5044,-5.5062,-5.5161,-5.5127,-5.5132,-5.516,-5.5158,-5.5201,-5.5206,-5.5215,-5.5287,-5.53,-5.5337,-5.5277,-5.5468,-5.5473,-5.5477,-5.5508,-5.5517,-5.5524,0,0,0,0,0,-5.4945,-5.5004,-5.5001,-5.5017,-5.51,-5.5163,-5.5174,-5.5185,-5.5163,-5.5193,-5.5214,-5.5204,-5.5324,-5.5294,-5.5308,-5.5347,-5.5466,-5.5471,-5.5477,-5.5504,-5.5515,-5.5524,0,0,0,0,0,0,-5.4961,-5.501,-5.5007,-5.5083,-5.5119,-5.5161,-5.5198,-5.5195,-5.5237,-5.5233,-5.5244,-5.5253,-5.5321,-5.5341,-5.5306,-5.5423,-5.5392,-5.5401,-5.5408,-5.5418,-5.5426,-5.542,-5.5281,0,0,0,0,0,-5.4974,-5.5023,-5.5062,-5.5125,-5.5144,-5.5168,-5.5196,-5.5202,-5.5239,-5.5254,-5.528,-5.5315,-5.5361,-5.539,-5.5434,-5.5511,-5.552,-5.5545,-5.5553,-5.5559,-5.5566,-5.561,-5.5621,-5.5497,-5.5497,-5.5497,0,0,-5.5001,-5.5033,-5.5063,-5.513,-5.5158,-5.5208,-5.5181,-5.5234,-5.527,-5.5261,-5.5327,-5.5347,-5.5387,-5.546,-5.5493,-5.5478,-5.5603,-5.5566,-5.5571,-5.5575,-5.5617,-5.5628,-5.5639,-5.5501,-5.55,-5.55,0,0,-5.5074,-5.5104,-5.5161,-5.5191,-5.5236,-5.5252,-5.5266,-5.5309,-5.5322,-5.5389,-5.5384,-5.5427,-5.5505,-5.5535,-5.556,-5.5647,-5.564,-5.5661,-5.5702,-5.5744,-5.5754,-5.5763,-5.5795,-5.5806,-5.5668,-5.5668,-5.5668,0,-5.5101,-5.5176,-5.519,-5.5244,-5.5274,-5.5271,-5.5328,-5.5356,-5.5412,-5.5432,-5.5415,-5.5516,-5.5542,-5.5622,-5.5644,-5.5664,-5.568,-5.5656,-5.5752,-5.5761,-5.5769,-5.58,-5.5812,-5.567,-5.567,-5.567,-5.567,0,-5.5207,-5.526,-5.53,-5.5358,-5.5392,-5.5447,-5.5468,-5.5501,-5.5505,-5.5523,-5.5591,-5.5623,-5.5674,-5.5694,-5.5696,-5.5775,-5.5764,-5.575,-5.5718,-5.5783,-5.5812,-5.5824,-5.5674,-5.5673,-5.5672,-5.5672,0,0,-5.5292,-5.5359,-5.5373,-5.54,-5.545,-5.549,-5.5546,-5.5598,-5.5627,-5.5666,-5.5712,-5.578,-5.5768,-5.5796,-5.5803,-5.584,-5.5908,-5.5821,-5.5822,-5.5836,-5.5998,-5.6009,-5.6022,-5.5904,-5.5906,-5.5908,-5.5995,0,-5.5372,-5.5472,-5.5487,-5.5575,-5.5624,-5.5623,-5.5671,-5.5707,-5.5725,-5.5769,-5.5788,-5.5837,-5.5816,-5.5834,-5.587,-5.5892,-5.5941,-5.5886,-5.5947,-5.5949,-5.5938,-5.6037,-5.6049,-5.6128,-5.6006,-5.6008,-5.6009,0,-5.5477,-5.5522,-5.5616,-5.5662,-5.5683,-5.5726,-5.5776,-5.5818,-5.5859,-5.587,-5.5903,-5.5905,-5.5962,-5.5929,-5.6008,-5.5971,-5.5997,-5.6011,-5.6015,-5.6021,-5.5983,-5.6046,-5.6154,-5.6166,-5.6027,-5.6025,-5.6024,0,-5.5531,-5.5614,-5.5682,-5.5705,-5.5759,-5.579,-5.5814,-5.5853,-5.5884,-5.5927,-5.5948,-5.5996,-5.6023,-5.606,-5.6075,-5.605,-5.6154,-5.6121,-5.6164,-5.6164,-5.6185,-5.6184,-5.6299,-5.6202,-5.6202,-5.6201,-5.6201,0,-5.5618,-5.5675,-5.5707,-5.5749,-5.5814,-5.583,-5.5893,-5.5915,-5.595,-5.5996,-5.5997,-5.6039,-5.6057,-5.6101,-5.6113,-5.6177,-5.6189,-5.6199,-5.6202,-5.6199,-5.6198,-5.6216,-5.6211,-5.6205,-5.6204,-5.6203,-5.6203,0,-5.5688,-5.5712,-5.5786,-5.5833,-5.5846,-5.5892,-5.5931,-5.5971,-5.599,-5.6048,-5.6062,-5.6092,-5.6145,-5.6164,-5.6227,-5.6236,-5.631,-5.6308,-5.6297,-5.6298,-5.634,-5.6336,-5.6471,-5.649,-5.638,-5.6381,-5.6381,0,-5.5742,-5.5787,-5.584,-5.5872,-5.5898,-5.5948,-5.5981,-5.5998,-5.6032,-5.6083,-5.6117,-5.6171,-5.6214,-5.6299,-5.6325,-5.6374,-5.6373,-5.6417,-5.638,-5.6377,-5.6375,-5.6372,-5.6377,-5.6424,-5.6425,-5.6426,-5.6427,0,-5.5836,-5.5846,-5.5894,-5.5948,-5.5987,-5.6029,-5.607,-5.6095,-5.6119,-5.6157,-5.6212,-5.6247,-5.6313,-5.6366,-5.6417,-5.644,-5.6438,-5.6439,-5.6451,-5.6449,-5.6442,-5.6447,-5.6317,-5.6435,-5.6434,-5.6434,-5.6433,-5.6433,-5.5901,-5.5941,-5.5986,-5.6039,-5.6073,-5.6111,-5.6152,-5.6177,-5.6225,-5.6282,-5.6289,-5.6349,-5.639,-5.6458,-5.6484,-5.6531,-5.6518,-5.6536,-5.6541,-5.6545,-5.6549,-5.6435,-5.654,-5.6539,-5.6539,-5.6539,-5.6539,0,-5.5995,-5.6024,-5.6074,-5.6132,-5.6175,-5.6171,-5.6216,-5.6252,-5.6305,-5.6344,-5.6389,-5.6453,-5.6505,-5.6536,-5.6589,-5.662,-5.662,-5.6633,-5.6631,-5.6636,-5.6556,-5.6541,-5.6632,-5.6632,-5.6632,-5.6632,-5.6632,-5.6632,-5.6049,-5.6118,-5.6134,-5.622,-5.6248,-5.6309,-5.6335,-5.6371,-5.6402,-5.6475,-5.6519,-5.654,-5.6576,-5.6632,-5.6679,-5.6687,-5.6706,-5.672,-5.6727,-5.6651,-5.6642,-5.6633,-5.6618,-5.6724,-5.6724,-5.6803,-5.6804,-5.6805]}]]